User: anonymous   Login
Location: Black Rock Desert
(40.7548°N, 119.2364°W)
Time: 09:16:23
(UTC-07:00)
Language:

Cosmos 1340 Rocket - Orbit

View from above orbital plane
View from above orbital plane
View from above satellite
View from above satellite

Ground track
Ground track

The orbit data is extracted from the following two-line orbital elements,

1 13068U 82013B   15247.89377769  .00000655  00000-0  43136-4 0  9994
2 13068  81.2017 245.5730 0021266 307.0323  52.8955 15.06026050825431
Epoch (UTC): 04 September 2015 21:27:02
Eccentricity: 0.0021266
inclination: 81.2017°
perigee height: 533 km
apogee height: 563 km
right ascension of ascending node: 245.5730°
argument of perigee: 307.0323°
revolutions per day: 15.06026050
mean anomaly at epoch: 52.8955°
orbit number at epoch: 82543

The dashed part of the orbit path shows where the satellite is in the earth's shadow,  

DLR